Powrót do katalogu

CZ-3 DEB

LostHEO
NORAD 26788·DEBRIS·🇨🇳 China

Wystrzelony Feb 1, 1986 z Xichang Satellite Launch Center

Loading…

Następne Przeloty (najbliższe 24 godziny)

TLE

NieaktualneSource: Space-Track

Epoka: Nov 22, 2018, 01:50 UTC

1 26788U 86010E   18326.07686854 -.00000149  00000-0 -13771-2 0  9997
2 26788  30.5932 212.8595 6838437 207.6481 350.7771  2.62616644175936

Śledź CZ-3 DEB w czasie rzeczywistym z AllMySat

Download on the App Store